Showing default

LES 8, 8746

Orbit data source: Space-Track

LES 8, 8746 is a payload satellite owned by SAMSO (US) in GEO that was launched on Mon, 15 Mar 1976 UTC via a TITAN IIIC launch vehicle from the Air Force Eastern Test Range (AFETR). Payload-class satellites include a variety of spacecraft equipped with specific instruments for various scientific and technological missions. These include communications satellites like Starlink; space stations such as the ISS; scientific satellites like the Hubble; Earth observation satellites from companies like Planet Labs, Umbra, and HawkEye 360; GPS; miniature CubeSats for education and research; and military/defense satellites.

Loading next visibility...
Identifier
8746, 1976-023A
Orbit
GEO
Country
Flag of USUS
Related business
Manufacturer
MIT-LL
Mission
Non-operational spacecraft
Bus & Motor
LES, Unknown motor
Mass
420 kg wet, 366 kg dry
Launch date (UTC)
1976-03-15 (50 years ago)
Launch vehicle
TITAN IIIC
Launch site
Air Force Eastern Test Range (AFETR)
Object type
Payload
Rocket body
Debris
Shape & HBR
Unknown
Radar Cross Section
Large (>1 m²)

Expand to show TLE details & history
Last TLE update: 1 day ago

TLE from 1 day ago
0 LES 8
1  8746U 76023A   26070.90952843 -.00000112  00000-0  00000+0 0  9992
2  8746  22.2188  38.2687 0031975 157.0284 198.2122  1.00269619128703
Epoch: 2026-03-11T21:49Z
TLE epoch observation values (Epoch: 2026-03-11T21:49:43.256Z)
Latitude
-1.84084°
Longitude
-103.24484°
Altitude
35,915.418 km
Speed
3.065 km/s
True Right ascension
02h 15m 00s
True Declination
-1° 50' 20"
Sunlit
Object was in daylight at epoch
Visualization orbit readout
Latitude
Unknown
Longitude
Unknown
Altitude
Unknown
Speed
Unknown
Apparent Right ascension
Unknown
Apparent Declination
Unknown
Sunlit
N/A
Visualization observer readout
Local Sidereal Time
02:39:32
Azimuth
Unknown
Elevation
Unknown
Doppler factor
Unknown
Orbital elements
Apogee altitude
35,922.875 km
Perigee altitude
35,653.222 km
Semi-major axis
42,166.186 km
Eccentricity
0.0032
Inclination
22.2188°
RAAN
38.2687°
Arg. of periapsis
157.0284°
True anomaly
198.09812°
Mean anomaly
198.2122°
Eccentric anomaly
198.15512°
Mean motion
0.25067 °/min
Orbital period
1,436.17 mins
BSTAR
0
Loading maneuver chart data...
Computing Atmospheric mass density...
Loading historical data...
Loading historical data...
Loading historical data...
Loading historical data...
Loading historical data...
Loading historical data...
Loading historical data...

Documentation

Showing up to 5 results
|